www.pogodaiklimat.ru

Погода и климат >> Архив погоды >> Филиппины >> Dipolog


ПОГОДА в Dipolog

  • Прогноз погоды в Dipolog
  • Монитор погоды в Dipolog
  • Климат города

АРХИВ ПОГОДЫ в Dipolog

Время (UTC), дата Ветер
(напр.,м/с)
 
Видим.   Явления Облачность Т
(С)
Тd
(С)
f
(%)
Тe
(С)
Тes
(С)
Комфортность P
(гПа)
Po
(гПа)
Тmin
(С)
Tmax
(С)
R
(мм)
R24
(мм)
S
(см)
21 10.10 ЮВ 1 15 км 8/3 540 м
[Cu med, cong Ac As]
+25.2 +23.8 92 +34 +34 очень
душно
1009.2 1009.0
00 11.10 Ю 1 15 км мгла {туман} 9/4 540 м
[Cu med, cong Ac As]
+27.8 +25.4 87 +41 +42 опасность
перегрева
1010.4 1010.0 +24.8
03 11.10 СВ 1 20 км мгла {туман} 5/3 540 м
[Cu med, cong Cs]
+32.6 +24.2 61 +45 +60 опасность
перегрева
1010.3 1010.0
06 11.10 В 2 20 км мгла {туман} 5/3 540 м
[Cu med, cong Cs]
+33.0 +23.9 59 +45 +54 опасность
перегрева
1008.2 1008.0
09 11.10 СВ 2 20 км мгла {туман} 4/3 540 м
[Cu med, cong Ac As]
+31.5 +22.7 60 +41 +42 опасность
перегрева
1008.4 1008.0
12 11.10 штиль 0 20 км {туман} 5/3 540 м
[Cu med, cong Ac As]
+28.2 +23.9 78 +39 +39 очень
душно
1010.3 1010.0 +33.5
15 11.10 ЮВ 2 18 км 8/3 540 м
[Cu med, cong Ac As]
+26.9 +24.2 85 +37 +37 очень
душно
1010.9 1011.0
18 11.10 штиль 0 18 км 8/3 540 м
[Cu med, cong Ac As]
+25.8 +23.9 89 +35 +35 очень
душно
1009.0 1009.0
21 11.10 В 1 18 км 5/3 540 м
[Cu med, cong Ac As]
+25.6 +24.0 91 +35 +35 очень
душно
1008.7 1009.0
00 12.10 В 4 20 км мгла {туман} 3/3 540 м
[Cu med, cong Ac trans]
+29.6 +24.6 75 +42 +45 опасность
перегрева
1011.6 1012.0 +25.6
03 12.10 СВ 3 20 км мгла {туман} 3/3 540 м
[Cu med, cong Ci fib]
+32.2 +25.1 66 +46 +57 опасность
перегрева
1011.2 1011.0
06 12.10 В 5 20 км мгла {туман} 3/3 540 м
[Cu med, cong Ac trans]
+33.2 +25.7 65 +48 +53 опасность
перегрева
1009.0 1009.0
09 12.10 СВ 3 20 км мгла {туман} 5/3 500 м
[Cb cap Ac trans]
+31.8 +25.0 67 +45 +46 опасность
перегрева
1008.2 1008.0
12 12.10 СВ 4 20 км {туман} 6/3 540 м
[Cu med, cong Ac As]
+30.0 +24.5 72 +42 +42 опасность
перегрева
1010.4 1010.0 +33.7
15 12.10 штиль 0 18 км 6/3 540 м
[Cu med, cong Ac As]
+28.9 +24.3 76 +40 +40 очень
душно
1010.9 1011.0
18 12.10 СВ 3 15 км гроза без осадков {ливн. осадки} 10/3 500 м
[Cb cap Ac As]
+27.8 +24.1 80 +39 +39 очень
душно
1009.6 1010.0 0.2
21 12.10 ЮВ 2 18 км {гроза, ливн. осадки} 8/3 540 м
[Cu med, cong Ac As]
+25.0 +23.5 91 +34 +34 очень
душно
1009.3 1009.0 6
00 13.10 В 1 15 км мгла {гроза, ливн. осадки} 9/4 540 м
[Cu med, cong Cs]
+27.8 +25.7 88 +41 +44 опасность
перегрева
1011.3 1011.0 +24.0 6
03 13.10 В 1 15 км мгла {гроза, ливн. осадки} 9/4 540 м
[Cu med, cong Cs]
+27.8 +25.7 88 +41 +52 опасность
перегрева
1011.3 1011.0 +24.0 6
06 13.10 С 2 18 км мгла {туман} 10/3 540 м
[Cu med, cong Ac As Cs]
+32.2 +25.7 69 +47 +52 опасность
перегрева
1008.4 1008.0
09 13.10 В 1 18 км мгла {туман} 10/3 540 м
[Cu med, cong Ac As Cs]
+31.8 +24.4 65 +44 +45 опасность
перегрева
1009.0 1009.0
15 13.10 СВ 2 18 км 9/3 540 м
[Cu med, cong Ac As]
+26.9 +24.4 86 +38 +38 очень
душно
1010.8 1011.0
18 13.10 СВ 2 8000 м гроза, ливневой дождь 10/4 500 м
[Sc As op]
+25.8 +24.2 91 +36 +36 очень
душно
1008.8 1009.0 5
21 13.10 ЮВ 1 15 км зарница {гроза, дождь} 9/3 500 м
[Cb cap Ac As]
+23.8 +22.6 93 +31 +31 очень
душно
1008.8 1009.0 0.8
00 14.10 Ю 1 18 км мгла {гроза, дождь} 9/3 540 м
[Cu med, cong Ac As]
+26.6 +24.3 87 +37 +39 очень
душно
1012.0 1012.0 +23.2 6
03 14.10 СВ 1 18 км мгла {туман} 8/3 540 м
[Cu med, cong Ac trans]
+30.0 +25.0 75 +43 +52 опасность
перегрева
1011.2 1011.0
06 14.10 С 2 15 км осадки на расстоянии {туман} 9/3 500 м
[Cb cap Cs]
+31.4 +25.4 71 +46 +54 опасность
перегрева
1008.5 1009.0
09 14.10 Ю 1 9000 м осадки на расстоянии {гроза, туман} 10/4 500 м
[Cu med, cong Ac As]
+30.2 +25.8 77 +45 +45 опасность
перегрева
1010.1 1010.0
12 14.10 штиль 0 15 км гроза без осадков 10/3 500 м
[Cb cap Ac As]
+28.9 +25.2 80 +42 +42 опасность
перегрева
1011.2 1011.0 +31.4
15 14.10 СВ 2 15 км слабый ливневой дождь {гроза} 10/3 500 м
[Cb cap Ac As]
+27.2 +24.3 84 +38 +38 очень
душно
1011.5 1012.0 6
18 14.10 штиль 0 15 км {гроза, ливн. осадки} 10/3 540 м
[Cu med, cong Ac As]
+25.6 +24.0 91 +35 +35 очень
душно
1009.9 1010.0 6
21 14.10 ЮВ 1 18 км 8/3 540 м
[Cu med, cong Ac As]
+23.8 +22.6 93 +31 +31 очень
душно
1009.9 1010.0
00 15.10 В 1 15 км мгла {туман} 9/3 540 м
[Cu med, cong Ac As Cs]
+26.2 +23.6 86 +36 +38 очень
душно
1012.5 1013.0 +23.5 6
03 15.10 СЗ 2 15 км мгла {туман} 10/3 540 м
[Cu med, cong Ac As Cs]
+30.0 +24.6 73 +43 +49 опасность
перегрева
1011.5 1012.0
06 15.10 СЗ 2 18 км мгла {туман} 9/3 500 м
[Cb cap Ac As Cs]
+31.0 +24.7 69 +44 +49 опасность
перегрева
1009.0 1009.0
09 15.10 СВ 1 15 км в посл. час ливневой дождь {туман} 9/3 540 м
[Cu med, cong Ac trans]
+30.0 +23.9 70 +41 +42 опасность
перегрева
1010.0 1010.0 0.0
12 15.10 ЮВ 1 12 км {ливн. осадки, туман} 9/3 540 м
[Cu med, cong Ac As]
+27.3 +25.0 87 +39 +39 очень
душно
1011.4 1011.0 +32.4 0.0
15 15.10 Ю 1 12 км 9/3 540 м
[Cu med, cong Ac As]
+26.2 +24.3 89 +36 +36 очень
душно
1011.9 1012.0
18 15.10 штиль 0 15 км 5/3 540 м
[Cu med, cong Ac As]
+25.2 +23.6 91 +34 +34 очень
душно
1010.4 1010.0
21 15.10 Ю 1 12 км 9/3 540 м
[Cu med, cong Ac As]
+24.7 +23.5 93 +33 +33 очень
душно
1011.2 1011.0
00 16.10 штиль 0 20 км мгла {туман} 8/3 540 м
[Cu med, cong Ac As]
+26.2 +23.8 87 +36 +39 очень
душно
1012.2 1012.0 +24.2 0.0
03 16.10 СЗ 3 20 км мгла {туман} 8/3 540 м
[Cu med, cong Ac As]
+30.2 +24.4 71 +42 +48 опасность
перегрева
1011.0 1011.0
06 16.10 штиль 0 20 км мгла {гроза, туман} 8/3 500 м
[Cb cap Ac As]
+30.0 +24.5 72 +42 +49 опасность
перегрева
1008.9 1009.0
09 16.10 ЮВ 1 20 км мгла {туман} 8/3 540 м
[Cu med, cong Ac As]
+27.6 +24.7 84 +39 +39 очень
душно
1009.2 1009.0
12 16.10 ЮВ 1 12 км {туман} 10/3 540 м
[Cu med, cong Ac As]
+26.0 +23.3 85 +35 +35 очень
душно
1011.3 1011.0 +32.0
15 16.10 штиль 0 12 км 9/3 540 м
[Cu med, cong Ac As]
+25.3 +23.3 89 +34 +34 очень
душно
1011.2 1011.0
18 16.10 Ю 1 15 км 6/3 540 м
[Cu med, cong Ac As]
+24.8 +23.4 92 +33 +33 очень
душно
1009.0 1009.0
21 16.10 Ю 1 15 км 8/3 540 м
[Cu med, cong Ac As]
+23.9 +23.0 95 +32 +32 очень
душно
1009.0 1009.0
00 17.10 ЮВ 1 20 км мгла {туман} 3/3 540 м
[Cu med, cong Ci fib]
+26.8 +23.8 84 +37 +41 очень
душно
1011.5 1012.0 +23.9
03 17.10 СЗ 2 20 км мгла {туман} 4/3 500 м
[Cb cap Ac trans]
+31.2 +25.3 71 +45 +57 опасность
перегрева
1011.2 1011.0
06 17.10 СЗ 3 20 км мгла {туман} 6/3 500 м
[Cb cap Ac As]
+32.4 +25.6 67 +47 +52 опасность
перегрева
1008.8 1009.0
09 17.10 З 4 20 км мгла {туман} 8/3 500 м
[Cb cap Ac As]
+28.6 +24.2 77 +40 +40 очень
душно
1008.5 1009.0
12 17.10 В 1 12 км {туман} 10/3 540 м
[Cu med, cong Cs]
+26.1 +23.0 83 +35 +35 очень
душно
1010.0 1010.0 +32.5

 

Местоположение метеостанции Dipolog (Филиппины): широта 8.60 долгота 123.35 высота над уровнем моря 5 м.

В архиве по умолчанию представлена погода в Dipolog за последнюю неделю. Архивные данные за месяц целиком и за предыдущие месяцы, начиная с января 2011 года, Вы можете получить, выбрав интересующий диапазон дат из раскрывающегося списка и нажав кнопку "Ввод!".


*Определитесь, кто Вы:
робот инопланетянин человек

Внимание! Время в таблицах - всемирное. Для получения местного времени необходимо прибавить поправку, которая в Dipolog равна 8 ч.

Смотрите также архив погоды в соседних городах и на ближайших метеорологических станциях:

Погода в Dumaguete (Филиппины) (78 км)
Погода в Lumbia Airport (Филиппины) (104 км)
Погода в Tagbilaran (Филиппины) (124 км)
Погода в Cotobato (Филиппины) (186 км)
Погода в Malaybalay (Филиппины) (197 км)
Погода в Mactan (Филиппины) (201 км)
Погода в Maasin (Филиппины) (235 км)
Погода в Zamboanga (Филиппины) (237 км)
Погода в Butuan (Филиппины) (240 км)
Погода в Surigao (Филиппины) (271 км)

Пояснения к столбцам:

Ветер - указаны скорость ветра в м/с - средняя за 10 мин, порывы в срок и между сроками (в фигурных скобках) и направление, откуда дует ветер: С - северный, СВ - северо-восточный, В - восточный, ЮВ - юго-восточный, Ю - южный, ЮЗ - юго-западный, З - западный, СЗ - северо-западный.
Видимость - горизонтальная дальность видимости в метрах или километрах. При видимости от 1 до 10 км при отсутствии осадков обычно наблюдается дымка, при ухудшении видимости до 1 км и менее - туман. В сухую погоду видимость может ухудшаться дымом, пылью или мглою.
Явления - указаны атмосферные явления, наблюдавшиеся в срок или в последний час перед сроком; фигурными скобками обозначены явления, наблюдавшиеся между сроками (за 1-3 часа до срока); квадратными скобками обозначены град или гололедные отложения с указанием их диаметра в мм.
Облачность - указаны через наклонную черту общая и нижняя облачность в баллах и высота нижней границы облаков в метрах; квадратными скобками обозначены формы облаков: Ci - перистые, Cs - перисто-слоистые, Cc - перисто-кучевые, Ac - высококучевые, As - высокослоистые, Sc - слоисто-кучевые, Ns - слоисто-дождевые, Cu - кучевые, Cb - кучево-дождевые. Подробнее классификацию облаков см. в Атласе облаков (PDF).
T - Температура воздуха - температура, измеренная на высоте 2 м над землей.
Td - Температура точки росы - температура, при понижении до которой содержащийся в воздухе водяной пар достигнет насыщения.
f - Относительная влажность воздуха - влажноcть воздуха, измеренная на высоте 2 м над землей.
Te - Эффективная температура - температура, которую ощущает одетый по сезону человек в тени. Характеристика душности погоды. При расчете учитывается влияние влажности воздуха и скорости ветра на теплоощущения человека.
Tes - Эффективная температура на солнце - температура, которую ощущает человек, с поправкой на солнечный нагрев. Характеристика знойности погоды. Зависит от высоты солнца над горизонтом, облачности и скорости ветра. Ночью, в пасмурную погоду, а также при ветре 12 м/с и более поправка равна нулю.
P - Атмосферное давление - приведенное к уровню моря атмосферное давление.
Po - Атмосферное давление - измеренное на уровне метеостанции атмосферное давление.
Tmin - Минимальная температура - минимум температуры воздуха на высоте 2 м над землей.
Tmax - Максимальная температура - максимум температуры воздуха на высоте 2 м над землей.
R - Количество осадков - Количество выпавших осадков за период времени, мм. При наведении курсора мыши на число - период времени, за который выпало указанное количество осадков.
R24 - Количество осадков - Количество выпавших осадков за 24 часа, мм.
S - Снежный покров - Высота снежного покрова, см. При наведении курсора мыши на число - состояние снежного покрова и степень покрытия местности в баллах.